SCP
0 -0 -0 -0 -0 -0 -0 -0 0 0 0 0 -0 -0 0 0 0 0 0 0 0 0 0 0 0 0 0 0 0 0 0 0 0 0 0 0 0 0 0 0 0 0 0
0 -0 -0 -0 -0 -0 -0 0 0 0 0 0 -0 -0 -0 0 0 0 0 0 0 0 0 0 0 0 0 0 0 0 0 0 0 0 0 0 0 0 0 0 0 0 0
0 0 0 -0 -0 0 0 0 0 0 0 0 0 -0 -0 -0 -0 0 0 0 0 0 0 0 0 0 0 0 0 0 0 0 0 0 0 0 0 0 0 0 0 0 0
0 0 0 0 0 0 0 0 0 0 0 0 0 0 -0 -0 -0 -0 0 0 0 0 0 0 0 0 0 0 0 0 0 0 0 0 0 0 0 0 0 0 0 0 0
0 0 0 0 0 0 0 0 0 0 0 0 0 0 -0 0 -0 -0 -0 0 0 0 0 0 0 0 0 0 0 0 0 0 0 0 0 0 0 0 0 0 0 0 0
0 0 0 0 0 0 0 0 0 0 0 0 0 0 0 0 -0 -0 -0 0 0 0 0 0 0 0 0 0 0 0 0 0 0 0 0 0 0 0 0 0 0 0 0
0 0 0 0 0 0 0 0 0 0 0 0 0 0 0 0 -0 -0 -0 0 0 0 0 0 0 0 0 0 0 0 0 0 0 0 0 0 0 0 0 0 0 0 0
0 0 0 0 0 0 0 0 0 0 0 0 0 0 0 0 0 0 0 0 0 0 0 0 0 0 0 0 0 0 0 0 0 0 0 0 0 0 0 0 0 0 0
0 0 0 0 0 0 0 0 0 0 0 0 0 0 0 0 0 0 0 0 0 0 0 0 0 0 0 0 0 0 0 0 0 0 0 0 0 0 0 0 0 0 0
0 0 0 0 0 0 0 0 0 0 0 0 0 0 0 0 0 0 0 0 0 0 0 0 0 0 0 0 0 0 0 0 0 0 0 0 0 0 0 0 0 0 0
0 0 0 0 0 0 0 0 0 0 0 0 0 0 0 0 0 0 0 0 0 0 0 0 0 0 0 0 0 0 0 0 0 0 0 0 0 0 0 0 0 0 0
0 0 0 0 0 0 0 0 0 0 0 0 0 0 0 0 0 0 0 0 0 0 0 0 0 0 0 0 0 0 0 0 0 0 0 0 0 0 0 0 0 0 0
0 0 0 0 0 0 0 0 0 0 0 0 0 0 0 0 0 0 0 0 0 0 0 0 0 0 0 0 0 0 0 0 0 0 0 0 0 0 0 0 0 0 0
0 0 0 0 0 0 0 0 0 0 0 0 0 0 0 0 0 0 0 0 0 0 0 0 0 0 0 0 0 0 0 0 0 0 0 0 0 0 0 0 0 0 0
0 0 0 0 0 0 0 0 0 0 0 0 0 0 0 0 0 0 0 0 0 0 0 0 0 0 0 0 0 0 0 0 0 0 0 0 0 0 0 0 0 0 0
0 0 0 0 0 0 0 0 0 0 0 0 0 0 0 0 0 0 0 0 0 0 0 0 0 0 0 0 0 0 0 0 0 0 0 0 0 0 0 0 0 0 0
0 0 0 0 0 0 0 0 0 0 0 0 0 0 0 0 0 0 0 0 0 0 0 0 0 0 0 0 0 0 0 0 0 0 0 0 0 0 0 0 0 0 0
0 0 0 0 0 0 0 0 0 0 0 0 0 0 0 0 0 0 0 0 0 0 0 0 0 0 0 0 0 0 0 0 0 0 0 0 0 0 0 0 0 0 0
0 0 0 0 0 0 0 0 0 0 0 0 0 0 0 0 0 0 0 0 0 0 0 0 0 0 0 0 0 0 0 0 0 0 0 0 0 0 0 0 0 0 0
0 0 0 0 0 0 0 0 0 0 0 0 0 0 0 0 0 0 0 0 0 0 0 0 0 0 0 0 0 0 0 0 0 0 0 0 0 0 0 0 0 0 0
0 0 0 0 0 0 0 0 0 0 0 0 0 0 0 0 0 0 0 0 0 0 0 0 0 0 0 0 0 0 0 0 0 0 0 0 0 0 0 0 0 0 0
0 0 0 0 0 0 0 0 0 0 0 0 0 0 0 0 0 0 0 0 0 0 0 0 0 0 0 0 0 0 0 0 0 0 0 0 0 0 0 0 0 0 0
0 0 0 0 0 0 0 0 0 0 0 0 0 0 0 0 0 0 0 0 0 0 0 0 0 0 0 0 0 0 0 0 0 0 0 0 0 0 0 0 0 0 0
0 0 0 0 0 0 0 0 0 0 0 0 0 0 0 0 0 0 0 0 0 0 0 0 0 0 0 0 0 0 0 0 0 0 0 0 0 0 0 0 0 0 0
0 0 0 0 0 0 0 0 0 0 0 0 0 0 0 0 0 0 0 0 0 0 0 0 0 0 0 0 0 0 0 0 0 0 0 0 0 0 0 0 0 0 0
0 0 0 0 0 0 0 0 0 0 0 0 0 0 0 0 0 0 0 0 0 0 0 0 0 0 0 0 0 0 0 0 0 0 0 0 0 0 0 0 0 0 0
Wind_Speed
4 4 3 3 3 2 2 3 2 2 3 5 6 6 5 6 5 4 4 12 13 13 12 12 12 12 12 11 11 11 10 8 6 5 4 5 5 5 4 3 4 5 6
5 5 4 3 3 3 2 3 2 1 1 4 5 6 6 5 4 5 4 8 15 15 15 15 14 14 14 13 13 13 11 10 8 6 5 5 5 5 4 3 4 5 6
6 5 4 4 4 3 3 3 2 1 2 3 4 5 5 4 4 4 5 4 7 14 17 18 18 17 16 15 14 13 11 10 9 7 5 4 4 4 5 5 4 5 5
7 6 5 4 4 4 4 4 2 2 2 3 3 3 4 4 4 3 3 4 4 6 11 18 18 18 18 16 14 13 11 10 9 7 6 5 2 2 5 6 5 5 4
9 7 6 5 5 4 4 4 2 2 3 4 4 4 4 4 4 4 3 4 5 5 5 11 17 18 18 18 17 15 13 12 11 9 7 6 3 1 4 5 5 5 4
10 7 6 6 6 5 4 4 4 2 3 4 5 4 4 3 4 3 3 3 3 5 5 5 6 10 17 18 18 18 16 14 14 12 9 6 3 2 4 5 5 5 5
8 6 7 6 6 6 6 7 4 4 2 2 4 3 4 4 4 3 3 3 4 5 5 5 5 4 6 14 17 18 18 16 16 15 12 8 4 2 4 4 5 6 6
8 7 8 7 6 6 7 6 5 3 2 3 5 4 2 3 4 3 2 4 5 5 6 7 5 6 5 4 11 18 19 18 17 15 13 10 7 4 3 5 6 6 6
8 8 8 7 7 6 7 7 6 6 4 2 3 5 5 4 1 2 2 2 5 5 4 4 5 6 6 5 6 12 17 17 17 15 12 11 9 6 3 4 6 6 5
7 8 7 7 7 6 8 9 8 4 6 4 3 1 2 5 5 2 2 2 3 5 4 4 5 5 5 5 7 12 15 15 16 16 14 12 9 6 4 4 6 6 6
3 4 5 5 5 4 5 5 6 5 4 5 4 3 2 1 3 5 3 1 2 2 3 4 4 3 4 4 4 9 13 13 15 16 16 15 11 8 6 4 5 7 7
2 1 2 3 4 3 4 4 5 6 6 5 4 4 4 4 4 4 4 4 2 1 2 2 3 3 3 4 6 11 12 12 13 14 15 15 13 11 9 4 2 6 7
2 1 0 2 2 4 4 4 5 5 7 6 6 4 3 3 4 4 5 4 3 2 2 1 1 3 3 3 4 9 11 11 11 13 15 15 15 15 15 11 7 6 7
4 2 1 2 3 3 3 5 4 5 5 6 7 6 4 4 4 5 6 6 4 1 1 2 1 2 3 3 5 7 5 11 11 11 13 14 15 16 17 16 16 15 12
6 6 5 4 5 5 5 5 4 5 5 5 5 6 5 4 4 4 6 8 8 5 5 4 2 3 3 4 5 4 4 9 9 9 10 12 13 13 14 15 16 17 18
4 4 5 6 7 7 7 6 5 6 6 6 5 6 6 4 4 4 5 5 5 5 5 4 3 4 5 6 8 4 5 9 8 8 9 10 10 10 11 12 14 14 14
7 7 7 7 7 6 6 5 6 7 7 6 6 6 6 7 6 4 4 5 4 4 5 3 2 4 4 6 5 4 5 3 3 8 8 8 9 9 10 11 12 12 12
7 7 6 6 6 5 5 6 6 7 7 8 8 8 7 7 8 6 6 7 6 4 5 5 3 4 4 6 6 6 4 3 2 7 7 7 9 9 10 10 11 11 11
4 3 4 5 5 5 5 6 6 6 8 9 8 9 8 8 8 6 7 8 6 5 4 6 5 3 3 4 5 5 4 1 2 6 6 5 6 8 10 10 11 11 12
3 3 3 3 4 6 7 6 7 7 8 8 7 8 8 9 9 9 8 8 8 7 5 7 6 5 3 4 5 4 2 1 1 3 3 2 3 5 8 9 11 12 13
4 3 2 2 3 4 6 7 7 8 8 7 6 7 9 11 13 11 9 9 9 8 8 7 8 6 4 7 7 5 4 2 0 2 2 1 2 2 2 6 9 11 12
3 2 2 1 3 3 6 10 8 7 7 7 7 7 7 10 13 16 15 17 16 14 12 9 8 9 8 6 6 5 5 4 3 2 3 1 1 0 2 1 5 10 11
2 1 1 1 2 4 6 7 10 6 6 6 7 6 5 6 9 9 13 19 19 21 21 14 12 10 11 11 11 9 6 5 4 5 4 3 2 2 2 3 9 10 10
3 2 2 3 3 4 5 5 7 5 5 6 6 6 6 6 6 7 6 8 9 12 15 13 12 12 11 11 14 11 7 5 4 3 4 4 3 3 2 2 10 11 10
3 3 3 3 3 4 5 4 7 4 4 5 5 5 6 6 9 10 7 7 8 7 10 11 10 10 11 14 14 9 8 6 3 3 3 4 4 2 2 2 6 12 11
4 3 4 4 4 4 5 6 8 3 4 4 4 5 9 9 10 12 8 8 9 8 8 9 8 8 10 14 21 14 11 9 5 4 5 5 4 4 2 3 3 3 6
Wind_Direction
159 164 178 175 174 164 142 106 55 25 109 109 105 105 89 74 67 55 47 67 71 74 77 77 75 75 74 74 73 72 73 75 88 112 125 118 110 114 121 100 89 81 81
165 167 177 180 180 171 154 120 124 109 87 94 101 108 106 92 77 66 51 55 63 69 72 71 71 72 70 70 72 72 70 69 74 87 105 113 112 119 134 120 102 89 84
176 164 158 177 182 166 139 117 119 112 99 90 96 111 113 109 101 81 65 54 52 61 65 65 65 65 67 69 72 71 67 63 61 67 81 102 115 124 139 135 118 96 86
174 154 151 177 176 145 134 129 123 135 106 97 92 99 104 113 119 105 77 70 67 62 61 64 59 56 56 59 65 68 69 66 60 60 63 65 80 138 150 141 129 115 101
170 158 157 167 158 140 146 149 132 138 126 115 107 95 94 106 124 127 108 94 86 75 61 63 60 55 50 47 49 54 60 62 57 57 59 56 54 131 165 156 147 136 128
172 163 144 151 150 147 156 150 130 131 131 131 111 83 62 74 94 110 111 96 89 79 60 47 43 46 48 44 42 43 48 53 49 44 45 51 61 176 184 178 167 150 142
171 154 135 145 154 159 158 144 126 143 120 111 94 61 21 23 49 60 82 92 91 89 75 59 51 40 33 38 37 38 38 46 45 37 35 43 57 141 172 175 172 160 147
157 147 143 149 152 142 134 134 136 141 142 152 132 111 66 8 358 17 52 98 100 96 83 72 60 49 33 22 30 38 35 36 36 31 31 42 53 85 142 178 180 171 160
147 148 150 144 146 147 151 155 164 158 159 184 160 140 147 180 210 4 18 71 102 99 95 83 66 52 39 25 21 29 36 33 31 29 35 44 50 68 113 175 185 180 177
144 155 156 152 152 156 167 176 172 164 153 169 194 166 149 155 146 141 37 30 91 107 112 100 82 66 48 31 34 40 39 35 30 28 34 41 45 61 93 132 163 174 180
118 151 158 153 157 158 178 187 171 170 167 171 172 157 138 124 125 133 152 163 54 64 110 115 106 87 63 43 36 49 48 42 35 31 32 33 39 55 74 104 154 171 173
89 94 177 168 158 154 173 193 189 192 193 191 188 166 162 161 172 145 144 152 133 104 98 108 117 106 83 56 59 60 55 47 41 37 34 32 37 46 41 40 158 184 179
100 52 157 198 181 181 182 178 192 206 200 198 199 196 186 187 161 140 128 137 131 141 135 110 139 127 108 77 57 59 57 51 43 41 39 39 43 43 36 42 72 123 144
148 166 190 245 236 216 207 185 186 198 193 200 200 192 190 200 174 154 149 146 135 143 156 175 170 150 124 106 85 57 50 58 47 43 44 46 47 47 42 48 58 69 82
163 164 180 219 231 222 216 193 196 198 189 196 197 189 188 193 190 175 162 158 149 163 192 176 168 172 144 122 111 83 56 65 56 46 49 54 55 57 55 55 60 65 71
177 185 200 216 219 215 209 199 198 203 203 211 205 198 187 180 185 172 167 159 142 145 165 175 171 160 160 141 128 104 74 69 68 60 54 56 63 72 71 67 67 68 74
193 208 215 223 225 225 225 217 211 201 205 215 216 205 194 172 177 178 169 163 149 137 135 150 126 139 145 145 127 107 85 50 53 75 68 66 67 78 86 79 74 70 74
194 205 209 214 221 224 224 216 214 204 205 212 213 200 197 180 178 180 176 178 170 149 135 143 132 153 151 155 142 125 114 105 76 88 80 75 72 74 87 89 80 73 76
198 210 210 214 224 230 225 210 203 203 211 217 207 196 197 186 183 179 180 177 175 166 139 144 149 154 131 151 133 117 107 106 121 100 87 76 83 81 87 92 86 79 79
221 238 234 228 231 233 229 219 206 209 213 214 203 197 197 195 190 182 182 176 167 158 144 149 148 148 138 149 138 133 138 202 138 102 87 75 104 100 108 109 104 97 89
221 219 204 212 229 226 222 212 203 204 204 204 198 197 202 200 193 186 184 179 167 159 156 154 155 158 164 172 175 161 150 155 120 112 93 27 38 18 27 124 122 117 105
205 189 198 237 258 252 241 220 204 200 197 197 199 200 206 205 202 196 193 186 177 168 166 163 168 183 188 176 154 160 140 148 190 192 129 158 93 107 316 336 149 136 125
186 188 224 250 270 276 268 242 223 202 193 191 185 178 184 181 182 189 199 194 190 183 175 168 174 189 186 183 171 168 165 162 177 167 132 169 187 201 255 243 178 159 150
193 217 253 271 276 274 252 234 208 179 171 176 171 168 166 161 164 163 168 182 190 191 187 182 188 192 189 181 183 177 156 125 89 127 139 160 189 208 223 236 202 181 171
200 216 230 245 253 264 243 196 146 136 139 149 156 159 165 171 182 167 156 166 178 192 198 200 196 190 177 170 165 149 150 149 154 187 178 150 164 167 204 240 233 203 188
209 229 232 230 233 245 240 202 154 139 146 148 150 173 181 174 175 172 171 172 183 191 184 196 198 188 177 175 177 179 172 168 152 184 190 152 153 140 195 251 234 231 206